Location: Hodgeman County Ambulance
(38.0844°N, 99.8949°W)
Time: 09:42:58
(UTC+00:00)

X-37B - Pass Details

Date: 28 September 2021
Orbit: 385 x 389 km, 45.0° (Epoch: 13 October)

Event Time Altitude Azimuth Distance (km) Brightness Sun altitude
Exits shadow 11:39:51 10° 310° (NW) 1,417 3.0 -11.3°
Reaches altitude 10° 11:39:52 10° 311° (NW) 1,413 3.0 -11.3°
Maximum altitude 11:42:32 24° 8° (N) 851 2.4 -10.7°
Drops below altitude 10° 11:45:12 10° 65° (ENE) 1,414 4.7 -10.2°
Sets 11:47:31 0° 80° (E) 2,268 6.7 -9.8°
